Regional Weather Roundup
Issued by NWS

Home | Current Version | Previous Version | Graphics & Text | Print | Product List | Glossary On
Versions: 1 2 3 4 5 6 7 8 9 10 11 12 13 14 15 16 17 18 19 20 21 22 23 24 25 26 27 28 29 30 31 32 33 34 35 36 37 38 39 40 41 42 43 44 45 46 47 48 49 50
000
ASUS43 KLMK 180210
RWRKY
KENTUCKY REGIONAL WEATHER ROUNDUP
NATIONAL WEATHER SERVICE LOUISVILLE KY
900 PM EST TUE JAN 17 2017

NOTE "FAIR" INDICATES FEW OR NO CLOUDS BELOW 12,000 FEET
WITH NO SIGNIFICANT WEATHER AND/OR OBSTRUCTIONS TO VISIBILITY.

KYZ001>023-026-027-061>063-070>075-180300-
WESTERN AND SOUTH CENTRAL KENTUCKY

CITY           SKY/WX    TMP DP  RH WIND       PRES   REMARKS
PADUCAH        CLOUDY    45  38  76 W5        30.16S
HENDERSON      CLOUDY    45  37  76 W9        30.14R
OWENSBORO      CLOUDY    44  41  89 W13       30.14R
HOPKINSVILLE   CLOUDY    48  42  80 W16       30.14R
BOWLING GREEN  CLOUDY    53  43  68 W12G18    30.11R
GLASGOW        CLOUDY    51  44  77 W6        30.11R
$$

KYZ024-025-028>034-038-045-046-053-180300-
NORTH CENTRAL KENTUCKY

CITY           SKY/WX    TMP DP  RH WIND       PRES   REMARKS
LOUISVILLE/SDF CLOUDY    48  40  73 W15       30.08R
LOUISVILLE/LOU CLOUDY    48  41  76 W8        30.09R
FORT KNOX      CLOUDY    46  41  81 W13G23    30.08R
$$

KYZ035>037-039>044-047>052-055>060-089>105-180300-
NORTHEAST KENTUCKY

CITY           SKY/WX    TMP DP  RH WIND       PRES   REMARKS
LEXINGTON      CLOUDY    49  43  80 W10       30.05R
COVINGTON      CLOUDY    46  40  79 W9        30.02F
FRANKFORT      CLOUDY    49  41  74 W7        30.05R
$$

KYZ054-064>069-076>088-106>120-180300-
SOUTHEAST KENTUCKY

CITY           SKY/WX    TMP DP  RH WIND       PRES   REMARKS
JACKSON        CLOUDY    59  47  64 W12G21    30.01S
LONDON         CLOUDY    58  50  75 W18       30.04S
SOMERSET       CLOUDY    55  46  71 W10G16    30.08R
MIDDLESBORO    DRIZZLE   61  60  97 CALM      30.03S
MONTICELLO     CLOUDY    57  51  80 W18       30.08S
$$





USA.gov is the U.S. government's official web portal to all federal, state and local government web resources and services.